"Pseudo-MPEC" for ABC0244

Created 2025 Dec 1 11:35:03 UT using Find_Orb

Click here for an explanation of pseudo-MPECs

 
 Astrometry: 
     ABC0244*KB2025 11 29.99552 07 10 23.97 +24 27 11.2    ~BUIo 19.0 GXNEOCPJ56
     ABC0244 KB2025 11 30.01384 07 10 21.63 +24 26 52.5    ~BUIo 17.9 GXNEOCPJ56
     ABC0244 KB2025 11 30.03179 07 10 19.52 +24 26 35.2    ~BUIo 19.0 GXNEOCPJ56

Station data:
(J56) Observatorio La Avejerilla  (N27.962860 W15.546400)  Canary Islands
   (Spain).

Orbital elements:  ABC0244
   Perihelion 2025 Jun 6.674953 +/- 158 TT = 16:11:55.9 (JD 2460833.174953)
Epoch 2025 Nov 30.0 TT = JDT 2461009.5   Earth MOID: 0.0609      AutoNEOCP
M  96.616687026 +/- 100             (J2000 ecliptic)
n   0.547946470 +/- 0.428           Peri.   41.332424 +/- 70
a   1.479031056 +/- 0.77            Node   267.347776 +/- 7
e   0.40396580 +/- 0.248            Incl.   28.689349 +/- 32
P   1.799/656.986d         H 16.99  G  0.15   U 12.2  SR
q 0.881553089 +/- 0.766    Q 2.076509022 +/- 25.5
From 3 observations 2025 Nov. 29-30 (52.2 min); mean residual 0".47
Residuals in arcseconds: 
251129 J56  .43+  .18+    251130 J56  .87-  .36-    251130 J56  .44+  .18+    

Ephemerides (geocentric):
Date (UTC) HH   RA             Dec           delta  r     elong  mag " sig PA
---- --------  ------------   ------------  ------ ------ -----  --- --------
2025 12 01 12  07 07 19.508   +24 01 41.29  .86349 1.7585 143.8 18.9  474 139
2025 12 01 13  07 07 14.320   +24 00 58.51  .86336 1.7587 143.9 18.9  520 139
2025 12 01 14  07 07 09.128   +24 00 15.71  .86323 1.7589 143.9 18.9  569 139
2025 12 01 15  07 07 03.931   +23 59 32.90  .86311 1.7591 144.0 18.9  624 139
2025 12 01 16  07 06 58.729   +23 58 50.06  .86298 1.7593 144.1 18.9  685 139
2025 12 01 17  07 06 53.522   +23 58 07.21  .86286 1.7594 144.1 18.9  753 140
2025 12 01 18  07 06 48.310   +23 57 24.34  .86273 1.7596 144.2 18.9  830 140
2025 12 01 19  07 06 43.093   +23 56 41.45  .86261 1.7598 144.2 18.9  916 140
2025 12 01 20  07 06 37.871   +23 55 58.54  .86248 1.7600 144.3 18.9 1013 140
2025 12 01 21  07 06 32.644   +23 55 15.61  .86236 1.7601 144.4 18.9 1125 139
2025 12 01 22  07 06 27.412   +23 54 32.66  .86224 1.7603 144.4 18.9 1254 139
2025 12 01 23  07 06 22.176   +23 53 49.70  .86211 1.7605 144.5 18.9 1404 139
2025 12 02 00  07 06 16.934   +23 53 06.71  .86199 1.7607 144.6 18.9 1582 139
2025 12 02 01  07 06 11.688   +23 52 23.71  .86187 1.7608 144.6 18.9 1794 139
2025 12 02 02  07 06 06.437   +23 51 40.69  .86175 1.7610 144.7 18.9 2053 139
2025 12 02 03  07 06 01.181   +23 50 57.65  .86162 1.7612 144.7 18.9 2376 139
2025 12 02 04  07 05 55.920   +23 50 14.60  .86150 1.7614 144.8 18.9 2788 139
2025 12 02 05  07 05 50.654   +23 49 31.52  .86138 1.7615 144.9 18.9 3334 140
2025 12 02 06  07 05 45.386   +23 48 48.42  .86126 1.7617 144.9 18.9 4086 140
2025 12 02 07  07 05 40.118   +23 48 05.30  .86114 1.7619 145.0 18.9 5186 140
2025 12 02 08  07 05 34.850   +23 47 22.16  .86102 1.7621 145.0 18.9 6931 141
2025 12 02 09  07 05 29.583   +23 46 38.99  .86090 1.7622 145.1 18.9 167' 141
2025 12 02 10  07 05 24.316   +23 45 55.80  .86078 1.7624 145.2 18.8 276' 142
2025 12 02 11  07 05 19.050   +23 45 12.58  .86066 1.7626 145.2 18.8 513' 138
2025 12 02 12  07 05 13.784   +23 44 29.34  .86054 1.7628 145.3 18.8 793' 124
2025 12 02 13  07 05 08.519   +23 43 46.07  .86042 1.7629 145.4 18.8 910' 117
2025 12 02 14  07 05 03.254   +23 43 02.78  .86030 1.7631 145.4 18.8 951' 114
2025 12 02 15  07 04 57.989   +23 42 19.46  .86018 1.7633 145.5 18.8 971' 112
2025 12 02 16  07 04 52.725   +23 41 36.12  .86006 1.7634 145.5 18.8 983' 111
2025 12 02 17  07 04 47.461   +23 40 52.76  .85994 1.7636 145.6 18.8 990' 110
2025 12 02 18  07 04 42.197   +23 40 09.37  .85982 1.7638 145.7 18.8 996' 110
2025 12 02 19  07 04 36.932   +23 39 25.96  .85970 1.7640 145.7 18.8  17d 109
2025 12 02 20  07 04 31.663   +23 38 42.53  .85958 1.7641 145.8 18.8  17d 109
2025 12 02 21  07 04 26.388   +23 37 59.09  .85946 1.7643 145.8 18.8  17d 109
2025 12 02 22  07 04 21.109   +23 37 15.62  .85934 1.7645 145.9 18.8  17d 109
2025 12 02 23  07 04 15.825   +23 36 32.14  .85922 1.7646 146.0 18.8  17d 109
2025 12 03 00  07 04 10.537   +23 35 48.64  .85910 1.7648 146.0 18.8  17d 108
2025 12 03 01  07 04 05.243   +23 35 05.12  .85898 1.7650 146.1 18.8  17d 108
2025 12 03 02  07 03 59.945   +23 34 21.58  .85887 1.7651 146.1 18.8  17d 109
2025 12 03 03  07 03 54.643   +23 33 38.02  .85875 1.7653 146.2 18.8  17d 109
2025 12 03 04  07 03 49.336   +23 32 54.44  .85863 1.7655 146.3 18.8  17d 110
2025 12 03 05  07 03 44.024   +23 32 10.85  .85852 1.7656 146.3 18.8  18d 111
2025 12 03 06  07 03 38.707   +23 31 27.24  .85840 1.7658 146.4 18.8  19d 113
2025 12 03 07  07 03 33.386   +23 30 43.61  .85829 1.7660 146.5 18.8  20d 113
2025 12 03 08  07 03 28.061   +23 29 59.96  .85817 1.7661 146.5 18.8  22d 112
2025 12 03 09  07 03 22.731   +23 29 16.30  .85806 1.7663 146.6 18.8  22d 111
2025 12 03 10  07 03 17.396   +23 28 32.61  .85794 1.7665 146.6 18.8  23d 111
2025 12 03 11  07 03 12.056   +23 27 48.91  .85783 1.7667 146.7 18.8  23d 110